Regional Weather Roundup
Issued by NWS

Home | Current Version | Previous Version | Graphics & Text | Print | Product List | Glossary On
Versions: 1 2 3 4 5 6 7 8 9 10 11 12 13 14 15 16 17 18 19 20 21 22 23 24 25 26 27 28 29 30 31 32 33 34 35 36 37 38 39 40 41 42 43 44 45 46 47 48 49 50
000
ASUS43 KIND 260559
RWRIN

WEATHER ROUNDUP FOR INDIANA
NATIONAL WEATHER SERVICE INDIANAPOLIS IN
100 AM EST MON JAN 26 2015

NOTE: "FAIR" INDICATES FEW OR NO CLOUDS BELOW 12,000 FEET WITH NO
SIGNIFICANT WEATHER AND/OR OBSTRUCTIONS TO VISIBILITY.

* - STATION DOES NOT REPORT WEATHER SUCH AS PRECIPITATION OR FOG.

+ - STATION NOT QUALITY CONTROLLED BY THE NATIONAL WEATHER SERVICE.
    USE DATA WITH CAUTION...ESPECIALLY DEWPOINT AND RELATIVE
    HUMIDITY OBSERVATIONS.

INZ001>003-010>013-019-020-260700-
NORTHWEST INDIANA

CITY           SKY/WX    TMP DP  RH WIND       PRES   REMARKS
VALPARAISO     NOT AVBL

$$

LMZ046-743>745-260700-
SOUTHERN LAKE MICHIGAN

STATION/POSITION TIME  TEMP WIND        PRES
                       AIR  DIR/SP/G
                 (UTC) (F)  (DEG/KT/KT) (MB)
MICHIGAN CITY    0500   22   20/ 17/ 20   N/A

$$

INZ004-005-014>016-021>024-260700-
NORTH CENTRAL INDIANA

CITY           SKY/WX    TMP DP  RH WIND       PRES   REMARKS
GOSHEN         PTCLDY    18   8  65 N13       29.94S WCI   5
6HR MIN TEMP:  18; 6HR MAX TEMP:  24; 6HR PCP: TRACE;

SOUTH BEND     CLEAR     19  10  68 NE7       29.95F WCI  10
6HR MIN TEMP:  19; 6HR MAX TEMP:  25; 6HR PCP: TRACE;


$$

INZ006>009-017-018-025>027-260700-
NORTHEAST INDIANA

CITY           SKY/WX    TMP DP  RH WIND       PRES   REMARKS
ANGOLA *+      MOCLDY    16   7  67 NE9       29.92F WCI   4
FORT WAYNE     FLURRIES  20  11  68 NE14      29.91F WCI   7
6HR MIN TEMP:  19; 6HR MAX TEMP:  21; 6HR PCP:  0.04;


$$

INZ028-029-035-036-043>045-051>053-260700-
WEST CENTRAL INDIANA

CITY           SKY/WX    TMP DP  RH WIND       PRES   REMARKS
GREENCASTLE +  CLOUDY    23  18  80 N14       29.88R WCI  11
LAFAYETTE      CLOUDY    24  19  81 N12       29.93S WCI  13
6HR MIN TEMP:  24; 6HR MAX TEMP:  27; 6HR PCP: TRACE;

TERRE HAUTE    CLOUDY    27  20  75 N12G23    29.90R WCI  17
6HR MIN TEMP:  27; 6HR MAX TEMP:  32;


$$

INZ030>032-037>040-046>048-054>057-064-065-260700-
CENTRAL INDIANA

CITY           SKY/WX    TMP DP  RH WIND       PRES   REMARKS
INDIANAPOLIS   CLOUDY    20  17  88 N15       29.85R WCI   6
6HR MIN TEMP:  20; 6HR MAX TEMP:  28; 6HR PCP: TRACE;

-EAGLE CREEK   CLOUDY    22  18  85 N17G24    29.86R WCI   8
6HR MIN TEMP:  22; 6HR MAX TEMP:  28; 6HR PCP: TRACE;

KOKOMO *+      CLOUDY    21  14  73 NE16      29.90S WCI   7
MT COMFORT *+  CLOUDY    21  12  68 N23       29.85R WCI   5
SHELBYVILLE    CLOUDY    24  17  74 N18G26    29.83R WCI  10
6HR MIN TEMP:  24; 6HR MAX TEMP:  34; 6HR PCP:  0.03;


$$

INZ033-034-041-042-049-050-058-059-260700-
EAST CENTRAL INDIANA

CITY           SKY/WX    TMP DP  RH WIND       PRES   REMARKS
MUNCIE         CLOUDY    20  15  81 NE16      29.85S WCI   6
6HR MIN TEMP:  19; 6HR MAX TEMP:  24; 6HR PCP:  0.01;


$$

INZ060-061-067>069-081>083-085>088-260700-
SOUTHWEST INDIANA

CITY           SKY/WX    TMP DP  RH WIND       PRES   REMARKS
EVANSVILLE     CLOUDY    33  28  81 N16G23    29.86R WCI  23
6HR MIN TEMP:  33; 6HR MAX TEMP:  43; 6HR PCP:  0.02;

HUNTINGBURG *+ CLOUDY    30  25  80 N16G23    29.82R WCI  19
6HR MIN TEMP:  30; 6HR MAX TEMP:  39; 6HR PCP:  0.01;


$$

INZ062-063-066-070>080-084-089>092-260700-
SOUTH CENTRAL AND SOUTHEAST INDIANA

CITY           SKY/WX    TMP DP  RH WIND       PRES   REMARKS
BLOOMINGTON    CLOUDY    25  21  85 N15       29.83R WCI  13
6HR MIN TEMP:  25; 6HR MAX TEMP:  37; 6HR PCP:  0.01;


$$



USA.gov is the U.S. government's official web portal to all federal, state and local government web resources and services.